Bowling Green, KY

10:17 AM CDT on May 27, 2017 (GMT -0500)
Bowling Green-Warren County Regional

Weather History for KBWG - March, 2013

Change the Weather History Date:

Sunday, March 17, 2013

  Actual Average Record
Temperature  
Mean Temperature 46 °F 49 °F  
Max Temperature 50 °F 60 °F 86 °F (1894)
Min Temperature 41 °F 37 °F 16 °F (1900)
Degree Days  
Heating Degree Days 19 16  
Month to date heating degree days 371 321  
Since 1 July heating degree days 3266 3519  
Cooling Degree Days 0 0  
Month to date cooling degree days 0 0  
Year to date cooling degree days 0 0  
Moisture  
Dew Point 40 °F    
Average Humidity 86    
Maximum Humidity 96    
Minimum Humidity 76    
Precipitation  
Precipitation 0.30 in 0.15 in 2.00 in (1919)
Month to date precipitation 2.39 2.34  
Year to date precipitation 10.08 9.91  
Snow  
Snow 0.00 in 0.00 in 1.00 in (1958)
Month to date snowfall 1.5 0.6  
Since 1 July snowfall 2.8 8.4  
Snow Depth 0.00 in    
Sea Level Pressure  
Sea Level Pressure 29.95 in    
Wind  
Wind Speed 9 mph (NE)    
Max Wind Speed 17 mph    
Max Gust Speed 23 mph    
Visibility 6 miles    
Events Rain    
T = Trace of Precipitation, MM = Missing Value Source: NWS Daily Summary

Daily Weather History Graph

Daily Weather History Graph

Search for Another Location

Airport or City:

Trip Planner

Search our weather history database for the weather conditions in past years. The results will help you decide how hot, cold, wet, or windy it might be!

Date:

Astronomy

Mar. 17, 2013 Rise Set
Actual Time 6:53 AM CDT 6:55 PM CDT
Civil Twilight 6:27 AM CDT 7:20 PM CDT
Nautical Twilight 5:57 AM CDT 7:51 PM CDT
Astronomical Twilight 5:26 AM CDT 8:21 PM CDT
Moon 10:13 AM CDT (3/17) No Moon Set
Length of Visible Light 12h 53m
Length of Day
12h 01m
Waxing Crescent, 31% of the Moon is Illuminated
Mar 17
Waxing Crescent
Mar 19
First Quarter
Mar 27
Full
Apr 2
Last Quarter
Apr 10
New

Hourly Weather History & Observations

Time (CDT) Temp. Windchill Dew Point Humidity Pressure Visibility Wind Dir Wind Speed Gust Speed Precip Events Conditions
12:53 AM 50.0 °F - 41.0 °F 71% 29.95 in 7.0 mi Calm Calm - 0.00 in Rain Light Rain
1:53 AM 50.0 °F - 41.0 °F 71% 29.95 in 7.0 mi Calm Calm - 0.00 in   Overcast
2:53 AM 48.9 °F - 42.1 °F 77% 29.94 in 6.0 mi North 5.8 mph - N/A   Haze
3:53 AM 48.0 °F - 41.0 °F 77% 29.95 in 6.0 mi North 8.1 mph - N/A   Haze
4:53 AM 46.0 °F 41.0 °F 43.0 °F 89% 29.96 in 4.0 mi NE 10.4 mph - 0.01 in   Overcast
5:29 AM 46.4 °F 42.4 °F 42.8 °F 87% 29.98 in 4.0 mi NNE 8.1 mph - N/A   Overcast
5:53 AM 46.0 °F 41.9 °F 43.0 °F 89% 29.98 in 3.0 mi NE 8.1 mph - N/A   Overcast
6:53 AM 46.0 °F 43.1 °F 43.0 °F 89% 30.00 in 4.0 mi NNE 5.8 mph - N/A   Overcast
7:53 AM 45.0 °F 40.1 °F 42.1 °F 90% 30.01 in 4.0 mi NE 9.2 mph - N/A   Overcast
8:53 AM 46.0 °F 41.4 °F 42.1 °F 86% 30.01 in 5.0 mi NE 9.2 mph - N/A   Overcast
9:53 AM 46.0 °F 40.2 °F 42.1 °F 86% 30.01 in 4.0 mi ENE 12.7 mph - N/A   Overcast
10:31 AM 46.4 °F 40.4 °F 41.0 °F 81% 30.02 in 5.0 mi ENE 13.8 mph - N/A   Haze
10:53 AM 45.0 °F 37.9 °F 41.0 °F 86% 30.02 in 6.0 mi NE 16.1 mph 19.6 mph N/A   Overcast
11:53 AM 46.0 °F 39.9 °F 39.9 °F 79% 30.00 in 7.0 mi ENE 13.8 mph - N/A   Overcast
12:53 PM 46.0 °F 40.6 °F 39.0 °F 76% 29.99 in 8.0 mi ENE 11.5 mph - N/A   Overcast
1:08 PM 46.4 °F 40.7 °F 39.2 °F 76% 29.99 in 8.0 mi ENE 12.7 mph - N/A   Overcast
1:53 PM 45.0 °F 40.6 °F 39.9 °F 82% 30.01 in 6.0 mi North 8.1 mph - 0.00 in   Haze
2:10 PM 44.6 °F 40.7 °F 39.2 °F 81% 30.00 in 2.5 mi North 6.9 mph 19.6 mph 0.02 in Rain Light Rain
2:18 PM 42.8 °F 36.6 °F 39.2 °F 87% 29.99 in 5.0 mi NNE 11.5 mph 17.3 mph 0.02 in Rain Light Rain
2:38 PM 42.8 °F 36.2 °F 39.2 °F 87% 29.97 in 3.0 mi NNE 12.7 mph 20.7 mph 0.03 in Rain Light Rain
2:53 PM 42.1 °F 34.9 °F 37.9 °F 85% 29.97 in 7.0 mi NE 13.8 mph 23.0 mph 0.03 in   Overcast
3:00 PM 41.0 °F 33.5 °F 37.4 °F 87% 29.96 in 10.0 mi NE 13.8 mph - N/A   Overcast
3:37 PM 41.0 °F 34.7 °F 37.4 °F 87% 29.95 in 2.0 mi East 10.4 mph - 0.09 in Rain Rain
3:53 PM 42.1 °F 35.2 °F 39.0 °F 89% 29.95 in 2.5 mi ENE 12.7 mph - 0.14 in Rain Rain
4:00 PM 42.8 °F 36.6 °F 39.2 °F 87% 29.94 in 3.0 mi ENE 11.5 mph - 0.01 in Rain Light Rain
4:53 PM 42.1 °F 37.1 °F 39.0 °F 89% 29.93 in 10.0 mi ENE 8.1 mph - 0.03 in   Overcast
5:53 PM 42.1 °F 35.7 °F 39.9 °F 92% 29.91 in 5.0 mi East 11.5 mph - 0.06 in Rain Light Rain
6:53 PM 42.1 °F 36.6 °F 39.9 °F 92% 29.89 in 9.0 mi ENE 9.2 mph - 0.03 in Rain Light Rain
7:53 PM 42.1 °F 36.6 °F 39.9 °F 92% 29.89 in 10.0 mi East 9.2 mph - 0.00 in   Overcast
8:53 PM 42.1 °F 36.6 °F 39.9 °F 92% 29.88 in 10.0 mi ENE 9.2 mph - N/A   Overcast
9:53 PM 42.1 °F 37.1 °F 39.0 °F 89% 29.87 in 9.0 mi ENE 8.1 mph - N/A   Overcast
10:51 PM 42.8 °F 37.5 °F 39.2 °F 87% 29.86 in 8.0 mi East 9.2 mph - N/A   Overcast
10:53 PM 43.0 °F 39.5 °F 39.9 °F 89% 29.86 in 8.0 mi East 5.8 mph - N/A   Overcast
11:53 PM 43.0 °F 40.3 °F 41.0 °F 93% 29.82 in 7.0 mi ESE 4.6 mph - N/A   Overcast